| time (UTC) | temp F | wind direction | speed MPH | gust MPH | rain 1hr in | rain 24hr in | rain mn in | humidity % | barometer mb |
| 20260510173512 | 67 | 94 | 1.0 | 3.0 | 0.00 | 0.06 | 0.06 | 62 | 1014.0 |
| 20260510173020 | 68 | 62 | 1.0 | 3.0 | 0.00 | 0.06 | 0.06 | 62 | 1014.1 |
| 20260510165020 | 70 | 83 | 2.0 | 6.0 | 0.00 | 0.06 | 0.06 | 58 | 1013.7 |
| 20260510164019 | 70 | 54 | 4.0 | 8.0 | 0.00 | 0.06 | 0.06 | 58 | 1013.6 |
| 20260510163020 | 70 | 85 | 3.0 | 7.0 | 0.00 | 0.06 | 0.06 | 57 | 1013.6 |
| 20260510162020 | 71 | 102 | 2.0 | 7.0 | 0.00 | 0.06 | 0.06 | 56 | 1013.6 |
| 20260510161514 | 71 | 115 | 5.0 | 10.0 | 0.00 | 0.06 | 0.06 | 56 | 1013.7 |
| 20260510161020 | 71 | 125 | 5.0 | 7.0 | 0.00 | 0.06 | 0.06 | 55 | 1013.8 |
| 20260510160512 | 71 | 101 | 5.0 | 7.0 | 0.00 | 0.06 | 0.06 | 56 | 1013.7 |
| 20260510160012 | 71 | 114 | 5.0 | 9.0 | 0.00 | 0.06 | 0.06 | 55 | 1013.6 |
| 20260510154021 | 72 | 108 | 5.0 | 9.0 | 0.00 | 0.06 | 0.06 | 53 | 1013.8 |
| 20260510153020 | 73 | 70 | 5.0 | 9.0 | 0.00 | 0.06 | 0.06 | 53 | 1013.9 |
| 20260510152019 | 73 | 86 | 6.0 | 12.0 | 0.00 | 0.06 | 0.06 | 52 | 1014.0 |
| 20260510151512 | 73 | 107 | 5.0 | 10.0 | 0.00 | 0.06 | 0.06 | 51 | 1014.0 |
| 20260510151020 | 73 | 118 | 4.0 | 10.0 | 0.00 | 0.06 | 0.06 | 52 | 1013.9 |
| 20260510144019 | 74 | 25 | 5.0 | 10.0 | 0.00 | 0.06 | 0.06 | 51 | 1014.1 |
| 20260510143512 | 73 | 61 | 4.0 | 9.0 | 0.00 | 0.06 | 0.06 | 50 | 1014.0 |
| 20260510143020 | 73 | 79 | 3.0 | 12.0 | 0.00 | 0.06 | 0.06 | 50 | 1013.9 |
| 20260510133019 | 73 | 66 | 7.0 | 10.0 | 0.00 | 0.06 | 0.06 | 50 | 1014.7 |
| 20260510132512 | 73 | 54 | 6.0 | 10.0 | 0.00 | 0.06 | 0.06 | 49 | 1014.7 |
| 20260510132019 | 74 | 75 | 5.0 | 8.0 | 0.00 | 0.06 | 0.06 | 49 | 1014.8 |
| 20260510131513 | 73 | 59 | 4.0 | 12.0 | 0.00 | 0.06 | 0.06 | 50 | 1014.8 |
| 20260510130012 | 74 | 87 | 6.0 | 12.0 | 0.00 | 0.06 | 0.06 | 50 | 1014.7 |
| 20260510125512 | 74 | 87 | 6.0 | 10.0 | 0.00 | 0.06 | 0.06 | 49 | 1014.6 |
| 20260510124021 | 73 | 120 | 7.0 | 13.0 | 0.00 | 0.06 | 0.06 | 51 | 1014.6 |
| 20260510123512 | 73 | 79 | 6.0 | 13.0 | 0.00 | 0.06 | 0.06 | 51 | 1014.7 |
| 20260510121512 | 73 | 60 | 4.0 | 10.0 | 0.00 | 0.06 | 0.06 | 53 | 1014.9 |
| 20260510121019 | 72 | 17 | 7.0 | 12.0 | 0.00 | 0.06 | 0.06 | 54 | 1014.9 |
| 20260510120513 | 73 | 131 | 6.0 | 12.0 | 0.00 | 0.06 | 0.06 | 54 | 1014.9 |
| 20260510120012 | 72 | 75 | 6.0 | 12.0 | 0.00 | 0.06 | 0.06 | 56 | 1015.1 |
| 20260510114512 | 72 | 104 | 5.0 | 12.0 | 0.00 | 0.06 | 0.06 | 58 | 1015.2 |
| 20260510114019 | 71 | 95 | 7.0 | 14.0 | 0.00 | 0.06 | 0.06 | 58 | 1015.3 |
| 20260510113512 | 71 | 99 | 6.0 | 12.0 | 0.00 | 0.06 | 0.06 | 59 | 1015.3 |
| 20260510113020 | 71 | 101 | 5.0 | 12.0 | 0.00 | 0.06 | 0.06 | 58 | 1015.3 |
| 20260510112512 | 71 | 90 | 5.0 | 12.0 | 0.00 | 0.06 | 0.06 | 58 | 1015.4 |
| 20260510110513 | 70 | 325 | 5.0 | 10.0 | 0.00 | 0.06 | 0.06 | 61 | 1015.7 |
| 20260510105020 | 70 | 80 | 6.0 | 12.0 | 0.00 | 0.06 | 0.06 | 61 | 1015.8 |
| 20260510104019 | 70 | 53 | 6.0 | 12.0 | 0.00 | 0.06 | 0.06 | 62 | 1015.9 |
| 20260510103512 | 69 | 64 | 5.0 | 13.0 | 0.00 | 0.06 | 0.06 | 63 | 1015.8 |
| 20260510103019 | 69 | 75 | 7.0 | 12.0 | 0.00 | 0.06 | 0.06 | 65 | 1015.8 |
| 20260510102527 | 69 | 112 | 6.0 | 12.0 | 0.00 | 0.06 | 0.06 | 65 | 1015.8 |
| 20260510101512 | 68 | 69 | 7.0 | 13.0 | 0.00 | 0.06 | 0.06 | 64 | 1016.0 |
| 20260510100512 | 68 | 84 | 8.0 | 14.0 | 0.00 | 0.06 | 0.06 | 65 | 1016.1 |
| 20260510100012 | 68 | 52 | 6.0 | 12.0 | 0.00 | 0.06 | 0.06 | 66 | 1016.1 |
| 20260510095019 | 67 | 39 | 9.0 | 14.0 | 0.00 | 0.06 | 0.06 | 66 | 1016.1 |
| 20260510094019 | 67 | 80 | 5.0 | 9.0 | 0.00 | 0.06 | 0.06 | 67 | 1016.1 |
| 20260510093020 | 66 | 29 | 7.0 | 14.0 | 0.00 | 0.06 | 0.06 | 69 | 1016.1 |
| 20260510092512 | 66 | 54 | 7.0 | 14.0 | 0.00 | 0.06 | 0.06 | 69 | 1016.1 |
| 20260510090512 | 65 | 110 | 9.0 | 17.0 | 0.00 | 0.06 | 0.06 | 71 | 1015.8 |
| 20260510084512 | 64 | 101 | 9.0 | 17.0 | 0.00 | 0.06 | 0.06 | 71 | 1015.8 |
| 20260510084019 | 64 | 109 | 5.0 | 12.0 | 0.00 | 0.06 | 0.06 | 74 | 1015.8 |
| 20260510083019 | 63 | 107 | 6.0 | 13.0 | 0.00 | 0.06 | 0.06 | 76 | 1015.7 |
| 20260510082021 | 63 | 50 | 5.0 | 12.0 | 0.00 | 0.06 | 0.06 | 77 | 1015.6 |
| 20260510081511 | 62 | 74 | 9.0 | 14.0 | 0.00 | 0.06 | 0.06 | 77 | 1015.6 |
| 20260510081020 | 63 | 102 | 9.0 | 13.0 | 0.00 | 0.06 | 0.06 | 76 | 1015.5 |
| 20260510080512 | 62 | 128 | 7.0 | 14.0 | 0.00 | 0.06 | 0.06 | 77 | 1015.6 |
| 20260510080014 | 62 | 57 | 8.0 | 13.0 | 0.00 | 0.06 | 0.06 | 77 | 1015.6 |
| 20260510075019 | 61 | 79 | 8.0 | 15.0 | 0.00 | 0.06 | 0.06 | 80 | 1015.6 |
| 20260510074019 | 61 | 109 | 6.0 | 12.0 | 0.00 | 0.06 | 0.06 | 80 | 1015.7 |
| 20260510073512 | 60 | 65 | 7.0 | 12.0 | 0.00 | 0.06 | 0.06 | 81 | 1015.7 |
| 20260510073019 | 60 | 125 | 6.0 | 12.0 | 0.00 | 0.06 | 0.06 | 81 | 1015.7 |
| 20260510070512 | 59 | 99 | 9.0 | 14.0 | 0.00 | 0.06 | 0.06 | 80 | 1015.6 |
| 20260510065511 | 59 | 88 | 7.0 | 14.0 | 0.00 | 0.06 | 0.06 | 79 | 1015.6 |
| 20260510065019 | 59 | 98 | 7.0 | 13.0 | 0.00 | 0.06 | 0.06 | 79 | 1015.6 |
| 20260510063512 | 59 | 35 | 6.0 | 12.0 | 0.00 | 0.06 | 0.06 | 79 | 1015.6 |
| 20260510062511 | 59 | 86 | 6.0 | 12.0 | 0.00 | 0.06 | 0.06 | 78 | 1015.5 |
| 20260510062020 | 59 | 75 | 6.0 | 9.0 | 0.00 | 0.06 | 0.06 | 78 | 1015.5 |
| 20260510061511 | 59 | 102 | 6.0 | 13.0 | 0.00 | 0.06 | 0.06 | 78 | 1015.5 |
| 20260510054512 | 57 | 79 | 6.0 | 12.0 | 0.00 | 0.06 | 0.06 | 84 | 1015.1 |
| 20260510053512 | 57 | 70 | 5.0 | 12.0 | 0.00 | 0.06 | 0.06 | 85 | 1015.0 |
| 20260510045512 | 57 | 102 | 9.0 | 20.0 | 0.00 | 0.06 | 0.06 | 88 | 1014.6 |
| 20260510044511 | 56 | 49 | 6.0 | 12.0 | 0.00 | 0.06 | 0.06 | 89 | 1014.8 |
| 20260510043512 | 56 | 75 | 6.0 | 8.0 | 0.00 | 0.06 | 0.06 | 88 | 1015.0 |
| 20260510043021 | 56 | 107 | 3.0 | 8.0 | 0.00 | 0.06 | 0.06 | 88 | 1015.1 |
| 20260510040011 | 57 | 102 | 5.0 | 12.0 | 0.00 | 0.06 | 0.06 | 87 | 1015.0 |
| 20260510035019 | 57 | 87 | 8.0 | 15.0 | 0.00 | 0.06 | 0.06 | 86 | 1014.8 |
| 20260510034511 | 57 | 73 | 5.0 | 10.0 | 0.00 | 0.06 | 0.06 | 86 | 1015.0 |
| 20260510034020 | 57 | 102 | 6.0 | 12.0 | 0.00 | 0.06 | 0.06 | 85 | 1014.7 |
| 20260510032511 | 57 | 112 | 7.0 | 12.0 | 0.01 | 0.06 | 0.06 | 86 | 1014.7 |
| 20260510031513 | 57 | 359 | 7.0 | 13.0 | 0.02 | 0.06 | 0.06 | 89 | 1014.4 |
| 20260510031018 | 57 | 102 | 6.0 | 12.0 | 0.02 | 0.06 | 0.06 | 90 | 1014.3 |
| 20260510030511 | 57 | 95 | 7.0 | 14.0 | 0.02 | 0.06 | 0.06 | 90 | 1014.4 |
| 20260510024017 | 56 | 96 | 6.0 | 8.0 | 0.05 | 0.06 | 0.06 | 91 | 1015.6 |
| 20260510023019 | 56 | 118 | 4.0 | 7.0 | 0.05 | 0.06 | 0.06 | 90 | 1015.9 |
| 20260510022511 | 56 | 137 | 4.0 | 9.0 | 0.05 | 0.05 | 0.05 | 90 | 1016.4 |
| 20260510021511 | 57 | 115 | 3.0 | 6.0 | 0.04 | 0.04 | 0.04 | 88 | 1017.1 |
| 20260510020511 | 58 | 359 | 5.0 | 10.0 | 0.04 | 0.04 | 0.04 | 87 | 1016.6 |
| 20260510015511 | 58 | 112 | 3.0 | 12.0 | 0.02 | 0.02 | 0.02 | 86 | 1016.6 |
| 20260510015018 | 58 | 55 | 6.0 | 13.0 | 0.01 | 0.01 | 0.01 | 86 | 1016.7 |
| 20260510013516 | 58 | 87 | 6.0 | 12.0 | 0.01 | 0.01 | 0.01 | 85 | 1017.0 |
| 20260510013018 | 58 | 103 | 10.0 | 17.0 | 0.01 | 0.01 | 0.01 | 85 | 1017.0 |
| 20260510011511 | 57 | 42 | 5.0 | 9.0 | 0.00 | 0.00 | 0.00 | 86 | 1017.3 |
| 20260510010510 | 57 | 31 | 7.0 | 16.0 | 0.00 | 0.00 | 0.00 | 87 | 1017.5 |
| 20260510010011 | 57 | 73 | 7.0 | 13.0 | 0.00 | 0.00 | 0.00 | 89 | 1017.4 |
| 20260510005511 | 56 | 354 | 5.0 | 14.0 | 0.00 | 0.00 | 0.00 | 90 | 1017.6 |
| 20260510005017 | 56 | 45 | 8.0 | 16.0 | 0.00 | 0.00 | 0.00 | 91 | 1017.6 |
| 20260510004018 | 56 | 359 | 8.0 | 15.0 | 0.00 | 0.00 | 0.00 | 92 | 1017.6 |
| 20260510003511 | 56 | 25 | 7.0 | 15.0 | 0.00 | 0.00 | 0.00 | 92 | 1016.2 |
| 20260510003018 | 56 | 28 | 8.0 | 14.0 | 0.00 | 0.00 | 0.00 | 92 | 1014.9 |
| 20260510001511 | 56 | 84 | 8.0 | 18.0 | 0.00 | 0.00 | 0.00 | 92 | 1015.0 |
| 20260510001018 | 56 | 77 | 9.0 | 15.0 | 0.00 | 0.00 | 0.00 | 92 | 1014.8 |
| 20260510000015 | 57 | 58 | 6.0 | 12.0 | 0.00 | 0.00 | 0.00 | 92 | 1015.0 |
| 20260509235516 | 57 | 51 | 5.0 | 13.0 | 0.00 | 0.00 | 0.00 | 92 | 1015.0 |
| 20260509234514 | 57 | 83 | 6.0 | 15.0 | 0.00 | 0.00 | 0.00 | 92 | 1015.5 |
| 20260509234021 | 57 | 55 | 7.0 | 13.0 | 0.00 | 0.00 | 0.00 | 91 | 1015.7 |
| 20260509233515 | 57 | 90 | 8.0 | 17.0 | 0.00 | 0.00 | 0.00 | 92 | 1016.0 |
| 20260509232515 | 56 | 73 | 3.0 | 9.0 | 0.00 | 0.00 | 0.00 | 92 | 1016.8 |
| 20260509232022 | 56 | 100 | 5.0 | 12.0 | 0.00 | 0.00 | 0.00 | 92 | 1016.4 |
| 20260509231516 | 56 | 83 | 6.0 | 13.0 | 0.00 | 0.00 | 0.00 | 92 | 1015.9 |
| 20260509231022 | 56 | 77 | 7.0 | 14.0 | 0.00 | 0.00 | 0.00 | 92 | 1015.8 |
| 20260509230517 | 56 | 59 | 8.0 | 14.0 | 0.00 | 0.00 | 0.00 | 92 | 1015.7 |
| 20260509225022 | 56 | 69 | 9.0 | 17.0 | 0.00 | 0.00 | 0.00 | 92 | 1015.5 |
| 20260509224021 | 57 | 141 | 7.0 | 15.0 | 0.00 | 0.00 | 0.00 | 92 | 1015.7 |
| 20260509223515 | 57 | 62 | 7.0 | 16.0 | 0.00 | 0.00 | 0.00 | 92 | 1015.8 |
| 20260509223022 | 57 | 62 | 10.0 | 15.0 | 0.00 | 0.00 | 0.00 | 92 | 1015.9 |
| 20260509222514 | 57 | 62 | 10.0 | 15.0 | 0.00 | 0.00 | 0.00 | 92 | 1015.9 |
| 20260509222021 | 57 | 105 | 9.0 | 16.0 | 0.00 | 0.00 | 0.00 | 92 | 1016.0 |
| 20260509221022 | 57 | 103 | 9.0 | 18.0 | 0.00 | 0.00 | 0.00 | 92 | 1016.0 |
| 20260509220016 | 57 | 91 | 9.0 | 16.0 | 0.00 | 0.00 | 0.00 | 92 | 1015.9 |
| 20260509215516 | 57 | 63 | 10.0 | 15.0 | 0.00 | 0.00 | 0.00 | 92 | 1016.0 |
| 20260509215021 | 57 | 64 | 9.0 | 16.0 | 0.00 | 0.00 | 0.00 | 92 | 1016.1 |
| 20260509214515 | 57 | 35 | 9.0 | 17.0 | 0.00 | 0.00 | 0.00 | 92 | 1016.2 |
| 20260509212515 | 57 | 131 | 9.0 | 15.0 | 0.00 | 0.00 | 0.00 | 92 | 1016.3 |
| 20260509211515 | 57 | 112 | 8.0 | 17.0 | 0.00 | 0.00 | 0.00 | 92 | 1016.2 |
| 20260509210014 | 57 | 61 | 7.0 | 13.0 | 0.00 | 0.00 | 0.00 | 92 | 1016.4 |
| 20260509203514 | 57 | 90 | 9.0 | 14.0 | 0.00 | 0.00 | 0.00 | 91 | 1016.4 |
| 20260509202516 | 57 | 122 | 6.0 | 12.0 | 0.00 | 0.00 | 0.00 | 90 | 1016.5 |
| 20260509202021 | 57 | 64 | 8.0 | 15.0 | 0.00 | 0.00 | 0.00 | 90 | 1016.5 |
| 20260509201515 | 58 | 73 | 6.0 | 14.0 | 0.00 | 0.00 | 0.00 | 89 | 1016.3 |
| 20260509195021 | 58 | 62 | 6.0 | 12.0 | 0.00 | 0.00 | 0.00 | 88 | 1016.7 |
| 20260509194022 | 58 | 104 | 6.0 | 12.0 | 0.00 | 0.00 | 0.00 | 88 | 1016.4 |
| 20260509192514 | 59 | 94 | 9.0 | 13.0 | 0.00 | 0.00 | 0.00 | 87 | 1016.0 |
| 20260509191515 | 59 | 48 | 6.0 | 12.0 | 0.00 | 0.00 | 0.00 | 87 | 1016.7 |
| 20260509191022 | 59 | 102 | 3.0 | 8.0 | 0.00 | 0.00 | 0.00 | 87 | 1017.0 |
| 20260509184514 | 59 | 52 | 6.0 | 12.0 | 0.00 | 0.00 | 0.00 | 88 | 1016.1 |
| 20260509184021 | 59 | 73 | 3.0 | 12.0 | 0.00 | 0.00 | 0.00 | 87 | 1016.3 |
| 20260509183515 | 59 | 127 | 7.0 | 12.0 | 0.00 | 0.00 | 0.00 | 87 | 1015.7 |
| 20260509181514 | 60 | 97 | 6.0 | 13.0 | 0.00 | 0.00 | 0.00 | 86 | 1015.8 |
| 20260509181022 | 60 | 78 | 6.0 | 12.0 | 0.00 | 0.00 | 0.00 | 85 | 1016.1 |
| 20260509180515 | 60 | 115 | 11.0 | 20.0 | 0.00 | 0.00 | 0.00 | 84 | 1016.2 |
| 20260509175023 | 61 | 52 | 6.0 | 12.0 | 0.00 | 0.00 | 0.00 | 82 | 1017.2 |
| 20260509174514 | 61 | 77 | 5.0 | 9.0 | 0.00 | 0.00 | 0.00 | 82 | 1017.3 |